Date String (YYYY-MM-DD hh:mm:ss) UTC,Instrument flags,absolute air pressure of the measurement (hPa),sample flow rate (lpm),inlet stack bypass flow (lpm),air temperature of the measurement (°C),ambient temperature measured by the external sensor (°C),aerosol sample conditioner tube jacket temperature (°C),OPC LED temperature (°C),internal box temperature (°C),relative humidity of the measurement (%),span deviation,mass concentration of particles derived from Lorenz-Mie calculation of OPC scattering (μg/m³),mass concentration of particles derived from Lorenz-Mie calculation of OPC scattering (μg/m³),mass concentration of particles derived from Lorenz-Mie calculation of OPC scattering (μg/m³)
DateTimeUTC,F1_M11,P_M11,Q1_M11,Q2_M11,T1_M11,T2_M11,T3_M11,T4_M11,T5_M11,U1_M11,ZSPAN_M11,X2_M11,X0_M11,X1_M11
2024-05-04 17:00:00,SystemResetWarning,0831.6,5.00,000.00,021.4,020.9,000.0,029.8,023.1,017.8,0000.0,0002.67,0007.33,0001.95
2024-05-04 17:01:00,SystemResetWarning,0831.6,5.01,000.00,021.4,020.9,000.0,029.8,023.2,017.8,0000.0,0002.65,0007.60,0001.99
2024-05-04 17:02:00,SystemResetWarning,0831.6,5.00,000.00,021.4,020.9,000.0,029.8,023.2,017.4,0000.0,0002.72,0007.88,0002.03
2024-05-04 17:03:00,SystemResetWarning,0831.6,5.00,000.00,021.5,020.9,000.0,029.8,023.2,017.5,0000.0,0002.72,0008.37,0002.06
2024-05-04 17:04:00,SystemResetWarning,0831.6,5.00,000.00,021.5,020.9,000.0,029.8,023.2,017.5,0000.0,0002.67,0008.67,0002.08
2024-05-04 17:05:00,SystemResetWarning,0831.6,5.00,000.00,021.5,020.9,000.0,029.8,023.2,018.0,0000.0,0002.74,0011.09,0002.13
2024-05-04 17:06:00,SystemResetWarning,0831.6,4.99,000.00,021.5,020.9,000.0,029.8,023.2,017.8,0000.0,0002.75,0011.30,0002.17
2024-05-04 17:07:00,SystemResetWarning,0831.6,5.00,000.00,021.5,020.9,000.0,029.8,023.2,017.9,0000.0,0002.82,0011.38,0002.22
2024-05-04 17:08:00,SystemResetWarning,0831.6,5.00,000.00,021.5,020.9,000.0,029.8,023.2,017.3,0000.0,0002.90,0011.25,0002.29
2024-05-04 17:09:00,SystemResetWarning,0831.5,5.00,000.00,021.5,020.9,000.0,029.8,023.2,017.4,0000.0,0003.05,0011.91,0002.37
2024-05-04 17:10:00,SystemResetWarning,0831.6,5.00,000.00,021.5,020.9,000.0,029.9,023.2,017.5,0000.0,0003.14,0012.98,0002.40
2024-05-04 17:11:00,SystemResetWarning,0831.5,5.00,000.00,021.5,021.0,000.0,029.9,023.2,017.8,0000.0,0003.19,0014.01,0002.40
2024-05-04 17:12:00,SystemResetWarning,0831.5,5.00,000.00,021.5,021.0,000.0,029.9,023.2,017.8,0000.0,0003.24,0013.88,0002.42
2024-05-04 17:13:00,SystemResetWarning,0831.4,5.00,000.00,021.5,021.0,000.0,029.8,023.2,017.6,0000.0,0003.24,0013.64,0002.45
2024-05-04 17:14:00,SystemResetWarning,0831.5,5.00,000.00,021.5,020.9,000.0,029.8,023.2,017.7,0000.0,0003.25,0013.09,0002.49
2024-05-04 17:15:00,SystemResetWarning,0831.5,5.01,000.00,021.5,020.9,000.0,029.8,023.2,017.5,0000.0,0003.30,0012.93,0002.54
2024-05-04 17:16:00,SystemResetWarning,0831.4,5.01,000.00,021.5,020.9,000.0,029.8,023.2,017.5,0000.0,0003.32,0010.76,0002.57
2024-05-04 17:17:00,SystemResetWarning,0831.4,5.01,000.00,021.5,020.9,000.0,029.8,023.2,017.9,0000.0,0003.34,0009.57,0002.60
2024-05-04 17:18:00,SystemResetWarning,0831.3,5.00,000.00,021.5,021.0,000.0,029.9,023.2,017.8,0000.0,0003.39,0010.11,0002.62
2024-05-04 17:19:00,SystemResetWarning,0831.4,4.99,000.00,021.5,021.0,000.0,029.9,023.3,017.6,0000.0,0003.40,0010.19,0002.62
2024-05-04 17:20:00,SystemResetWarning,0831.4,5.00,000.00,021.5,021.0,000.0,029.9,023.3,017.6,0000.0,0003.37,0009.76,0002.61
2024-05-04 17:21:00,SystemResetWarning,0831.4,4.99,000.00,021.5,021.0,000.0,029.9,023.2,017.5,0000.0,0003.36,0009.08,0002.63
2024-05-04 17:22:00,SystemResetWarning,0831.4,5.00,000.00,021.5,021.0,000.0,029.9,023.2,017.4,0000.0,0003.37,0008.92,0002.69
2024-05-04 17:23:00,SystemResetWarning,0831.4,5.00,000.00,021.5,021.0,000.0,029.9,023.2,017.5,0000.0,0003.35,0008.50,0002.74
2024-05-04 17:24:00,SystemResetWarning,0831.4,5.01,000.00,021.5,021.0,000.0,029.9,023.2,017.4,0000.0,0003.36,0008.63,0002.77
2024-05-04 17:25:00,SystemResetWarning,0831.3,5.01,000.00,021.5,021.0,000.0,029.9,023.2,017.3,0000.0,0003.39,0008.91,0002.78
2024-05-04 17:26:00,SystemResetWarning,0831.3,5.00,000.00,021.5,021.0,000.0,029.9,023.2,017.7,0000.0,0003.40,0009.43,0002.80
2024-05-04 17:27:00,SystemResetWarning,0831.3,5.00,000.00,021.5,021.0,000.0,029.9,023.3,017.8,0000.0,0003.42,0009.62,0002.80
2024-05-04 17:28:00,SystemResetWarning,0831.3,4.99,000.00,021.5,021.0,000.0,029.9,023.3,017.3,0000.0,0003.44,0009.90,0002.81
2024-05-04 17:29:00,SystemResetWarning,0831.3,5.00,000.00,021.5,021.0,000.0,029.9,023.3,017.8,0000.0,0003.43,0009.50,0002.82
2024-05-04 17:30:00,SystemResetWarning,0831.3,5.00,000.00,021.5,021.0,000.0,029.9,023.3,017.5,0000.0,0003.44,0009.41,0002.85
2024-05-04 17:31:00,SystemResetWarning,0831.3,5.01,000.00,021.6,021.0,000.0,029.9,023.3,017.8,0000.0,0003.47,0009.52,0002.88
2024-05-04 17:32:00,SystemResetWarning,0831.2,5.00,000.00,021.6,021.0,000.0,029.9,023.3,017.6,0000.0,0003.49,0009.69,0002.89
2024-05-04 17:33:00,SystemResetWarning,0831.3,4.99,000.00,021.6,021.1,000.0,029.9,023.3,017.4,0000.0,0003.49,0008.87,0002.87
2024-05-04 17:34:00,SystemResetWarning,0831.2,5.00,000.00,021.6,021.0,000.0,029.9,023.3,017.5,0000.0,0003.53,0008.83,0002.89
2024-05-04 17:35:00,SystemResetWarning,0831.2,5.01,000.00,021.6,021.0,000.0,029.9,023.3,017.4,0000.0,0003.54,0008.71,0002.92
2024-05-04 17:36:00,SystemResetWarning,0831.2,5.00,000.00,021.6,021.1,000.0,029.9,023.4,018.2,0000.0,0003.54,0008.82,0002.94
2024-05-04 17:37:00,SystemResetWarning,0831.2,5.01,000.00,021.6,021.1,000.0,030.0,023.4,018.1,0000.0,0003.59,0009.24,0002.94
2024-05-04 17:38:00,SystemResetWarning,0831.2,5.01,000.00,021.6,021.1,000.0,030.0,023.4,017.7,0000.0,0003.58,0009.67,0002.98
2024-05-04 17:39:00,SystemResetWarning,0831.1,5.00,000.00,021.6,021.1,000.0,030.0,023.4,017.3,0000.0,0003.59,0009.60,0003.04
2024-05-04 17:40:00,SystemResetWarning,0831.1,5.00,000.00,021.6,021.1,000.0,030.0,023.4,017.4,0000.0,0003.59,0009.62,0003.08
2024-05-04 17:41:00,SystemResetWarning,0831.1,5.00,000.00,021.6,021.1,000.0,030.0,023.4,017.6,0000.0,0003.63,0009.56,0003.11
2024-05-04 17:42:00,SystemResetWarning,0831.1,5.00,000.00,021.7,021.1,000.0,030.0,023.4,017.2,0000.0,0003.63,0010.14,0003.12
2024-05-04 17:43:00,SystemResetWarning,0831.1,4.99,000.00,021.7,021.1,000.0,030.0,023.4,017.4,0000.0,0003.62,0011.21,0003.13
2024-05-04 17:44:00,SystemResetWarning,0831.1,5.00,000.00,021.7,021.1,000.0,030.0,023.4,017.3,0000.0,0003.67,0012.40,0003.15
2024-05-04 17:45:00,SystemResetWarning,0831.0,5.01,000.00,021.7,021.1,000.0,030.0,023.4,017.5,0000.0,0003.68,0012.40,0003.15
2024-05-04 17:46:00,SystemResetWarning,0831.0,5.00,000.00,021.7,021.1,000.0,030.0,023.4,017.7,0000.0,0003.69,0012.54,0003.14
2024-05-04 17:47:00,SystemResetWarning,0831.0,4.99,000.00,021.7,021.1,000.0,030.0,023.4,017.2,0000.0,0003.73,0012.76,0003.15
2024-05-04 17:48:00,SystemResetWarning,0830.9,4.99,000.00,021.7,021.1,000.0,030.0,023.4,017.4,0000.0,0003.73,0011.63,0003.17
2024-05-04 17:49:00,SystemResetWarning,0830.9,5.00,000.00,021.7,021.1,000.0,030.0,023.4,017.7,0000.0,0003.78,0011.27,0003.17
2024-05-04 17:50:00,SystemResetWarning,0830.9,5.00,000.00,021.7,021.1,000.0,030.0,023.4,018.4,0000.0,0003.83,0011.83,0003.17
2024-05-04 17:51:00,SystemResetWarning,0830.9,5.01,000.00,021.7,021.2,000.0,030.0,023.4,018.0,0000.0,0003.79,0012.68,0003.15
2024-05-04 17:52:00,SystemResetWarning,0830.8,5.00,000.00,021.7,021.2,000.0,030.0,023.5,018.2,0000.0,0003.77,0013.04,0003.14
2024-05-04 17:53:00,SystemResetWarning,0830.8,5.00,000.00,021.7,021.2,000.0,030.0,023.5,017.7,0000.0,0003.75,0012.77,0003.13
2024-05-04 17:54:00,SystemResetWarning,0830.8,5.01,000.00,021.7,021.2,000.0,030.1,023.5,017.4,0000.0,0003.78,0011.73,0003.13
2024-05-04 17:55:00,SystemResetWarning,0830.7,5.00,000.00,021.7,021.2,000.0,030.1,023.5,017.5,0000.0,0003.76,0011.28,0003.14
2024-05-04 17:56:00,SystemResetWarning,0830.7,5.00,000.00,021.7,021.2,000.0,030.1,023.5,017.7,0000.0,0003.74,0012.51,0003.15
2024-05-04 17:57:00,SystemResetWarning,0830.7,5.00,000.00,021.7,021.2,000.0,030.1,023.5,017.8,0000.0,0003.75,0012.84,0003.16
2024-05-04 17:58:00,SystemResetWarning,0830.7,4.99,000.00,021.7,021.2,000.0,030.1,023.5,017.9,0000.0,0003.72,0013.18,0003.17
2024-05-04 17:59:00,SystemResetWarning,0830.7,5.00,000.00,021.8,021.2,000.0,030.1,023.6,018.0,0000.0,0003.70,0013.41,0003.17
